Regional Weather Roundup
Issued by NWS Sterling, VA

Home | Current Version | Previous Version | Graphics & Text | Print | Product List | Glossary On
Versions: 1 2 3 4 5 6 7 8 9 10 11 12 13 14 15 16 17 18 19 20 21 22 23 24 25 26 27 28 29 30 31 32 33 34 35 36 37 38 39 40 41 42 43 44 45 46 47 48 49 50
000
ASUS41 KLWX 291010
RWRLWX

REGIONAL WEATHER ROUNDUP
NATIONAL WEATHER SERVICE BALTIMORE MD/WASHINGTON DC
500 AM EST MON DEC 29 2014

Note: "FAIR" indicates few or no clouds below 12,000 feet
with no significant weather and/or obstructions to visibility.
 TC=TEMPERATURE CELSIUS

 * =Non NWS site. Station does not report precipitation (e.g. rain,
    snow, etc.), thunder, or fog.

DCZ001-MDZ009-015-VAZ040>042-051-053>054-291100-
WASHINGTON METRO

CITY           SKY/WX    TMP DP  RH WIND       PRES   REMARKS
WASHINGTON NAT CLOUDY    45  35  68 N7        30.16S
DULLES         CLOUDY    41  31  67 N8        30.14F
ANDREWS AFB    CLOUDY    41  37  87 N5        30.14R
FT BELVOIR     CLOUDY    42  40  93 NW2       30.15S
QUANTICO       CLOUDY    42  37  82 N5        30.16S
COLLEGE PARK*  CLOUDY    43  36  75 N5        30.15R
LEESBURG*      CLOUDY    41  34  75 N7        30.16R
MANASSAS*      CLOUDY    41  39  93 NW3       30.16R
GAITHERSBURG*  CLOUDY    39  30  70 CALM      30.18R

$$

MDZ006>007-011-014-291100-
BALTIMORE METRO

CITY           SKY/WX    TMP DP  RH WIND       PRES   REMARKS
BWI AIRPORT    CLOUDY    42  32  67 N5        30.14F
MD SCIENCE CTR   N/A     43  30  60 MISG      30.14F
MARTIN STATE   CLOUDY    43  32  65 NW5       30.16F
ANNAPOLIS      CLOUDY    43  36  76 N5        30.14F
FORT MEADE*    CLOUDY    41  34  75 CALM      30.17R

$$

MDZ012-015-019>023-291100-
MARYLAND EASTERN SHORE

CITY           SKY/WX    TMP DP  RH WIND       PRES   REMARKS
OCEAN CITY     CLOUDY    43  41  93 N6        30.11F
SALISBURY      LGT RAIN  44  39  82 N7        30.11F
BAY BRIDGE AP*   N/A     43  36  75 N5        30.15S
CAMBRIDGE*     CLOUDY    43  37  81 N5        30.12F
EASTON*        DRIZZLE   43  43 100 CALM      30.17S

$$

MDZ017>025-291100-
SOUTHERN MARYLAND

CITY           SKY/WX    TMP DP  RH WIND       PRES   REMARKS
PATUXENT RIVER CLOUDY    42  36  79 N10       30.13F
ST INIGOES     LGT RAIN  42  35  76 N8        30.12F
LEONARDTOWN*   CLOUDY    41  36  81 NE3       30.15S

$$

MDZ003>005-291100-
NORTH CENTRAL MARYLAND

CITY           SKY/WX    TMP DP  RH WIND       PRES   REMARKS
FREDERICK*     CLOUDY    41  28  60 N6        30.18S
HAGERSTOWN APT CLOUDY    38  24  57 N6        30.15F
WESTMINSTER*   CLOUDY    37  28  70 N9        30.14S

$$

MDZ501>502-291100-
WESTERN MARYLAND

CITY           SKY/WX    TMP DP  RH WIND       PRES   REMARKS
OAKLAND*       CLOUDY    28 N/A N/A CALM      30.08S
CUMBERLAND*    CLOUDY    36  32  87 CALM      30.20S

$$

VAZ025>031-291100-
SHENANDOAH VALLEY

CITY           SKY/WX    TMP DP  RH WIND       PRES   REMARKS
WINCHESTER*    CLOUDY    41  27  56 N3        30.15R
FRONT ROYAL*   CLOUDY    39  30  70 CALM      30.15R
LURAY*         CLOUDY    41  32  70 N9        30.14R
NEW MARKET*    CLOUDY    40  33  75 NE6       30.13R
STAUNTON*      DRIZZLE   41  37  88 NE6       30.13R
WAYNESBORO*    CLOUDY    40  38  95 NW6       30.11R

$$

WVZ021-048>050-054>055-291100-
EASTERN WEST VIRGINIA PANHANDLE

CITY           SKY/WX    TMP DP  RH WIND       PRES   REMARKS
MARTINSBURG    CLOUDY    40  27  59 NW9       30.15F
PETERSBURG*    CLOUDY    40  31  70 CALM      30.16R

$$

VAZ036>039-050-291100-
CENTRAL FOOTHILLS

CITY           SKY/WX    TMP DP  RH WIND       PRES   REMARKS
CHARLOTTESVILL CLOUDY    42  39  89 NE6       30.14R
CULPEPER*      CLOUDY    43  37  81 CALM      30.15S
ORANGE*        CLOUDY    41  37  87 N5        30.16R
GORDONSVILLE*  CLOUDY    40  38  93 NE3       30.15R
WARRENTON*     CLOUDY    42  40  95 N5        30.15R

$$

VAZ055>057-291100-
NORTH AND CENTRAL PIEDMONT

CITY           SKY/WX    TMP DP  RH WIND       PRES   REMARKS
FREDERICKSBRG* CLOUDY    42  40  92 N3        30.14R
STAFFORD*      CLOUDY    40  40 100 CALM      30.19R

$$

NCZ024-NYZ072-PAZ021-071-VAZ022-071-291100-
OTHER REGIONAL OBSERVATIONS

CITY           SKY/WX    TMP DP  RH WIND       PRES   REMARKS
NEW YORK CITY  CLOUDY    39  22  50 VRB5      30.16S
PHILADELPHIA   CLOUDY    41  24  51 N12       30.16R
PITTSBURGH     CLOUDY    32  25  75 N7        30.17S
ROANOKE        LGT RAIN  47  45  93 NE6       30.09F
RICHMOND       LGT RAIN  47  43  86 N10       30.12R
RALEIGH        LGT RAIN  53  50  89 NE9       30.05F FOG

$$

ANZ530>537-291100-
MARINE OBSERVATIONS

STATION/POSITION TIME  TEMP    WIND        PRES
                       AIR SEA DIR/SP/G
                 (UTC) (F)     (DEG/KT/KT) (MB)
THOMAS PT LIGHT  1000   42 43  350/  7/  7 1021.9S
BALT KEY BRIDGE  1000   43     350/ 10/ 12 1020.7R
COVE POINT       1000   42      20/ 11/ 13 1020.1F
LEWISETTA        1000   42 45   20/  7/ 10 1019.6R
SOLOMONS ISLAND  1000      44                N/A
PINEY POINT      1000           20/  8/  9   N/A

$$




USA.gov is the U.S. government's official web portal to all federal, state and local government web resources and services.